Weather in Simagino

Russia / Saint-Petersburg and Leningrad Oblast     60°16′29″N   29°49′12″E
temp.,
°C
wind,
m/s
gust,
m/s
humid.,
%
clouds,
%
prec.,
mm/h
press.,
hPa
HPBL,
m
1 december, wed
wed100:00−4nw4993100 0.4 976718
03:00−5nw5990100 0.6 978754
06:00−5nw41091100 0.1 979777
09:00−5wnw61191100 0.3 982783
12:00−5wnw6118784 0.2 985745
15:00−7wnw6118765 0.3 987582
18:00−8wnw511886 0.0 989411
21:00−8wnw410885 0.0 990369
2 december, thu
thu200:00−10wnw379216 0.0 992192
03:00−11nw369350 0.0 993139
06:00−12nw229352 0.0 99481
09:00−12nne1192100 0.0 99530
12:00−8se1286100 0.0 995106
15:00−7ene2387100 0.0 995118
18:00−9ene3690100 0.0 995148
21:00−9ene3790100 0.0 995165
3 december, fri
fri300:00−9ne3691100 0.0 995152
03:00−10ne379370 0.0 995116
06:00−9ne399382 0.0 994174
09:00−7ne31090100 0.0 995263
12:00−4ene51085100 0.0 995619
15:00−4ne51190100 0.1 994658
18:00−4ne51189100 0.1 994709
21:00−4ne51093100 0.5 994730
4 december, sat
sat400:00−4nne61191100 0.4 995755
03:00−4n61192100 0.8 996788
06:00−6n61190100 0.3 998616
09:00−8nnw5992100 0.5 1001478
12:00−9nnw499192 0.1 1003355
15:00−9nnw479194 0.1 1005322
18:00−11n379485 0.0 1008205
21:00−12n369675 0.0 1010144
5 december, sun
sun500:00−11n3696100 0.0 1013151
03:00−11nne359677 0.0 1014137
06:00−11ne259790 0.0 1016140
09:00−13ese239777 0.1 102091
12:00−11ese249383 0.0 1023205
15:00−10e389291 0.1 1024493
18:00−12ese4109479 0.0 1025389
21:00−13ese5109337 0.0 1026358